EW5705 Weather Reports


time (UTC)temp
C
wind
direction
speed
KPH
gust
KPH
rain 1hr
cm
rain 24hr
cm
rain mn
cm
humidity
%
barometer
mb
20260504050025 3 106 17.7 29.0 0.03 2.77 0.05 95 975.4
20260504044521 3 121 22.5 40.2 0.03 2.77 0.03 95 976.1
20260504043017 3 81 16.1 25.7 0.03 2.77 0.03 95 977.1
20260504041512 3 112 14.5 20.9 0.03 2.77 0.03 95 977.9
20260504040007 3 103 16.1 25.7 0.03 2.77 0.03 95 978.8
20260504034503 3 103 9.7 25.7 0.00 2.74 0.00 95 979.7
20260504033123 3 103 19.3 29.0 0.00 2.74 0.00 95 980.1
20260504031559 4 124 11.3 22.5 0.03 2.74 0.00 96 980.9
20260504030104 4 115 4.8 17.7 0.03 2.74 0.00 97 981.4
20260504024550 4 105 9.7 19.3 0.05 2.74 2.74 97 981.9
20260504023046 3 101 11.3 20.9 0.10 2.74 2.74 96 982.3
20260504021546 3 104 6.4 19.3 0.15 2.72 2.72 96 983.0
20260504020039 3 66 4.8 20.9 0.28 2.72 2.72 96 983.7
20260504014536 3 10 6.4 27.4 0.38 2.69 2.69 96 984.9
20260504013036 3 360 12.9 33.8 0.43 2.64 2.64 96 985.6
20260504011528 3 355 14.5 35.4 0.48 2.57 2.57 96 986.8
20260504010024 3 51 9.7 29.0 0.43 2.44 2.44 96 988.1
20260504004624 3 98 14.5 32.2 0.53 2.31 2.31 96 988.5
20260504003019 3 19 12.9 29.0 0.61 2.21 2.21 96 989.1
20260504001529 2 8 17.7 37.0 0.64 2.08 2.08 96 989.8
20260504000013 2 333 19.3 37.0 0.61 1.98 1.98 96 990.6
20260503234516 2 10 14.5 32.2 0.43 1.75 1.75 96 991.6
20260503233006 2 66 12.9 32.2 0.36 1.60 1.60 96 993.0
20260503231503 2 40 11.3 25.7 0.33 1.42 1.42 96 993.8
20260503230113 2 65 8.0 22.5 0.41 1.37 1.37 96 994.8
20260503224559 2 63 9.7 25.7 0.61 1.32 1.32 96 995.5
20260503223110 2 355 6.4 20.9 0.66 1.24 1.24 96 996.6
20260503221554 2 108 11.3 22.5 0.71 1.12 1.12 96 996.8
20260503220054 2 66 9.7 22.5 0.64 0.97 0.97 96 996.9
20260503214557 2 45 11.3 25.7 0.41 0.71 0.71 96 996.8
20260503213051 1 52 11.3 25.7 0.25 0.58 0.58 95 996.6
20260503211547 1 63 12.9 27.4 0.13 0.43 0.43 95 998.5
20260503210044 1 40 11.3 24.1 0.05 0.33 0.33 95 999.1
20260503204544 1 62 12.9 25.7 0.08 0.33 0.33 95 999.8
20260503203039 1 62 14.5 33.8 0.13 0.33 0.33 95 1000.1
20260503201538 2 360 14.5 29.0 0.18 0.30 0.30 94 1000.4
20260503200034 2 25 6.4 22.5 0.25 0.28 0.28 94 1001.2
20260503194537 2 56 8.0 25.7 0.23 0.23 0.23 94 1002.4
20260503193030 2 45 4.8 17.7 0.18 0.20 0.20 93 1002.5
20260503191525 2 69 4.8 22.5 0.10 0.13 0.13 93 1003.9
20260503190036 2 62 8.0 19.3 0.00 0.03 0.03 92 1005.1
20260503184521 3 66 8.0 16.1 0.00 0.03 0.03 92 1005.8
20260503183019 3 27 6.4 17.7 0.00 0.03 0.03 92 1006.3
20260503181534 3 36 3.2 14.5 0.00 0.03 0.03 91 1007.1
20260503180024 3 84 6.4 16.1 0.00 0.03 0.03 91 1007.7
20260503174510 3 79 8.0 16.1 0.00 0.03 0.03 90 1007.8
20260503173010 4 87 8.0 12.9 0.00 0.03 0.03 89 1008.5
20260503171520 5 79 4.8 12.9 0.00 0.03 0.03 87 1008.7
20260503081550 0 167 0.0 0.0 0.00 0.03 0.00 96 1015.5
20260503071547 0 167 0.0 0.0 0.00 0.05 0.00 96 1015.6